Flag for Germany Weather past 2 weeks in Dresden, Saxony, Germany

Now
46 °F

Passing clouds.


Feels Like: 45 °F
Forecast: 44 / 72 °F
Wind: 3 mph from Southwest

Location: Dresden-Klotzsche

Current Time: May 31, 2015 at 1:53:38 AM

Latest Report: May 31, 2015 at 1:20 AM


Visibility: N/A

Pressure: 30.07 "Hg

Humidity: 71%

Dew point: 37 °F

Location of DresdenLocation

Historic Weather in Dresden — Graph

°F

Dresden temperature yesterday

Maximum temperature yesterday: 63 °F (at 1:50 PM)
Minimum temperature yesterday: 48 °F (at 7:50 AM)
Average temperature yesterday: 56 °F

Past Weeks' High & Low Weather Summary

 TemperatureHumidityPressure
High70 °F (May 18, 3:20 PM)100% (May 26, 1:50 AM)30.33 "Hg (May 26, 1:50 AM)
Low41 °F (May 16, 5:20 AM)32% (May 22, 2:20 PM)29.65 "Hg (May 19, 1:20 AM)
Average56 °F63%30.02 "Hg
* Reported May 16 12:20 AM — May 31 12:50 AM, Dresden, Weather by CustomWeather, © 2015

Note: Actual official high and low records may vary slightly from our data, if they occured in-between our weather recording intervals... More about our weather records

Advertising

Dresden weather history for previous 24 hours

 ConditionsComfort  
Time TempWeatherWind HumidityBarometerVisibility
12:50 AM
Sun, May 31
48 °FPassing clouds.6 mph66%30.07 "HgN/A
12:20 AM48 °FPassing clouds.6 mph66%30.07 "HgN/A
11:20 PM
Sat, May 30
48 °FClear.6 mph66%30.04 "Hg10 mi
10:50 PM48 °FClear.7 mph71%30.04 "Hg10 mi
10:20 PM48 °FPassing clouds.3 mph71%30.04 "HgN/A
9:50 PM50 °FSunny.3 mph62%30.04 "Hg10 mi
9:20 PM50 °FPassing clouds.5 mph62%30.04 "HgN/A
8:50 PM52 °FPassing clouds.8 mph58%30.01 "HgN/A
8:20 PM54 °FPassing clouds.8 mph58%30.01 "HgN/A
7:50 PM54 °FPassing clouds.8 mph58%30.01 "HgN/A
7:20 PM55 °FPassing clouds.9 mph55%29.98 "HgN/A
6:50 PM55 °FPassing clouds.13 mph59%29.98 "HgN/A
6:20 PM57 °FPassing clouds.9 mph55%29.95 "HgN/A
5:50 PM57 °FPassing clouds.14 mph55%29.95 "HgN/A
5:20 PM59 °FSunny.14 mph51%29.92 "Hg10 mi
4:50 PM63 °FPassing clouds.13 mph39%29.92 "HgN/A
4:20 PM63 °FPassing clouds.9 mph39%29.89 "HgN/A
3:50 PM61 °FPassing clouds.9 mph45%29.92 "HgN/A
3:20 PM63 °FSunny.14 mph49%29.89 "Hg10 mi
2:50 PM63 °FPassing clouds.10 mph39%29.89 "HgN/A
2:20 PM61 °FPassing clouds.12 mph39%29.89 "HgN/A
1:50 PM63 °FSunny.17 mph42%29.89 "Hg10 mi
1:20 PM61 °FScattered clouds.13 mph45%29.89 "HgN/A
12:50 PM57 °FScattered clouds.12 mph51%29.89 "HgN/A
12:20 PM59 °FScattered clouds.12 mph51%29.89 "HgN/A
11:50 AM57 °FScattered clouds.10 mph59%29.89 "HgN/A
11:20 AM57 °FScattered clouds.10 mph59%29.89 "HgN/A
10:50 AM54 °FBroken clouds.12 mph72%29.89 "HgN/A
10:20 AM54 °FBroken clouds.12 mph77%29.89 "HgN/A
9:50 AM52 °FBroken clouds.10 mph77%29.89 "HgN/A
9:20 AM50 °FBroken clouds.10 mph88%29.89 "HgN/A
8:50 AM50 °FBroken clouds.9 mph88%29.86 "HgN/A
8:20 AM48 °FLight rain. Partly sunny.6 mph94%29.86 "HgN/A
7:50 AM48 °FLight rain. Overcast.12 mph87%29.86 "HgN/A
7:20 AM50 °FPartly sunny.10 mph82%29.86 "HgN/A
6:50 AM55 °FLight rain. Partly sunny.10 mph67%29.83 "HgN/A
6:20 AM55 °FSunny.12 mph72%29.80 "Hg10 mi
5:50 AM55 °FClear.13 mph72%29.80 "Hg10 mi
5:20 AM55 °FPassing clouds.13 mph77%29.80 "HgN/A
4:50 AM55 °FPartly cloudy.9 mph77%29.80 "HgN/A
4:20 AM55 °FPartly cloudy.10 mph72%29.80 "HgN/A
3:50 AM55 °FClear.5 mph72%29.77 "Hg10 mi
3:20 AM55 °FClear.6 mph72%29.77 "Hg10 mi
2:50 AM55 °FPassing clouds.5 mph72%29.77 "HgN/A
2:20 AM57 °FPassing clouds.7 mph67%29.80 "HgN/A
1:50 AM59 °FPartly cloudy.7 mph63%29.80 "HgN/A
1:20 AM61 °FPassing clouds.9 mph59%29.77 "HgN/A
Weather by CustomWeather, © 2015

See weather overviewHow to use our weather pages